Wind_Speed
44 44 42 38 34 29 26 25 26 26 24 22 23 22 20 21 22 20 18 16 16 17 17 17 17 15 14 12 11 15 22 23 19 17 15 13 14 17 16 15 17 20 22 22 21 21 21 20 20 19 18 17 16 15 14 13 13 13 12 12 12 12 11 11 11 11 11 11 11 11 12 12 13 13 13 12 12 12 13 13 13 12 12 12 12 12
45 44 40 36 34 31 29 29 28 26 24 23 24 24 21 22 24 24 22 19 18 18 17 16 16 15 14 13 12 12 17 22 23 19 16 15 15 16 17 16 16 17 18 21 22 21 20 20 20 19 19 19 18 17 16 14 12 12 12 12 12 12 11 11 10 10 10 10 10 11 11 11 12 12 12 12 12 12 12 12 12 11 11 11 11 11
45 43 39 37 36 36 33 31 28 27 26 24 25 25 22 22 22 22 22 20 17 17 15 14 13 13 12 13 13 12 13 19 25 24 20 19 17 16 17 17 15 14 15 18 21 21 21 20 20 20 20 19 18 17 16 15 13 13 12 12 12 12 12 11 10 9 9 10 10 10 11 10 11 11 11 10 11 11 11 11 11 11 10 9 9 10
42 41 39 39 39 38 36 32 29 28 26 24 24 24 22 21 22 21 21 19 18 17 15 13 13 12 12 12 13 14 14 15 21 25 23 21 20 18 18 18 17 16 16 17 19 21 22 21 20 21 21 20 19 18 17 16 14 14 13 12 12 12 12 12 11 10 9 9 9 9 9 9 9 10 10 9 9 9 10 10 10 10 10 9 9 9
40 40 41 41 40 40 38 34 31 29 28 26 24 23 23 22 23 22 21 20 19 17 16 15 14 13 14 13 13 15 15 16 18 21 23 22 21 19 19 19 19 19 19 18 19 21 22 23 22 21 21 21 20 19 18 17 16 14 13 12 12 12 12 12 11 10 9 8 8 8 7 8 8 9 9 9 9 8 8 9 9 9 9 9 8 8
40 41 42 42 41 41 39 36 33 31 29 28 24 23 25 24 22 20 20 20 20 18 18 18 15 14 14 13 13 13 14 16 18 20 23 25 23 19 18 19 20 20 20 20 21 22 24 25 24 22 22 21 21 20 19 18 16 15 14 13 12 11 11 11 11 10 8 7 7 7 7 8 9 9 9 9 9 8 8 8 8 8 8 8 8 8
41 43 44 43 42 41 40 37 34 32 31 30 27 24 24 22 20 19 20 21 21 21 22 21 17 15 15 13 13 12 13 15 19 22 25 28 26 21 18 19 20 20 19 19 20 21 23 24 24 23 22 21 21 20 19 18 17 16 14 13 12 11 10 10 10 9 8 7 7 8 9 9 9 9 9 9 8 8 8 8 8 8 7 7 7 7
42 44 44 44 44 42 40 37 35 33 32 31 30 27 25 23 22 22 22 23 23 24 24 23 20 17 16 16 14 14 14 15 17 22 28 30 29 25 21 20 22 21 19 19 18 18 19 22 24 24 23 22 21 20 19 19 19 18 16 14 13 12 11 10 9 9 8 8 8 9 9 9 9 10 10 10 10 9 9 8 8 8 7 7 7 7
43 45 45 44 44 43 40 37 35 34 32 32 32 30 27 26 25 25 24 24 25 25 23 22 22 20 19 19 17 17 17 16 15 19 27 33 33 29 24 22 23 23 21 20 19 19 19 20 23 24 23 22 21 20 20 20 19 19 17 16 15 13 12 11 10 9 9 9 8 8 9 10 10 9 10 10 10 9 9 9 8 8 8 8 8 8
46 47 46 45 45 43 41 39 36 35 33 33 32 31 29 28 27 26 25 25 26 25 22 21 22 21 21 21 20 20 20 19 18 18 24 33 38 33 27 25 24 24 23 22 21 20 20 21 22 22 21 21 22 21 20 20 19 19 18 17 16 15 13 12 11 11 10 10 9 8 9 9 10 9 9 9 8 8 8 7 7 7 7 7 8 8
47 47 47 47 46 45 44 42 39 38 35 33 32 31 30 29 29 27 26 27 27 24 21 21 22 22 20 22 22 22 23 22 21 18 18 28 40 38 31 29 26 25 24 23 22 21 20 20 19 18 18 20 22 21 20 20 20 19 19 18 17 16 15 14 13 12 12 11 9 8 8 8 9 9 9 8 7 7 6 6 6 6 6 7 7 8
46 47 48 48 48 47 46 44 42 41 39 37 34 31 30 30 30 30 30 30 27 23 22 22 22 21 19 21 24 24 24 24 23 19 15 20 36 41 33 31 29 26 26 25 24 22 20 18 16 15 16 19 21 21 20 20 20 20 19 18 18 17 16 15 14 14 13 11 10 9 8 8 8 8 8 8 7 7 6 6 5 6 6 7 8 9
46 46 47 48 48 48 47 46 45 43 42 41 38 34 32 33 33 33 33 32 28 23 23 23 22 20 19 21 24 24 25 25 22 21 16 15 27 38 35 31 30 28 27 26 25 22 20 18 18 16 16 17 19 21 22 22 21 21 20 19 18 18 17 17 16 16 15 13 11 10 9 8 7 7 8 8 8 7 6 6 6 6 7 7 8 9
46 45 46 48 48 48 48 48 47 46 45 44 42 38 37 38 37 36 35 33 28 25 24 23 21 18 18 21 22 23 25 24 21 20 18 14 19 33 36 32 31 29 27 26 25 23 21 20 21 20 19 19 20 21 22 22 22 21 20 20 20 19 18 18 18 18 17 15 13 12 11 9 8 7 7 7 7 7 7 7 7 7 7 8 8 9
46 45 46 47 48 48 47 47 47 46 46 45 43 41 40 40 38 37 36 32 28 26 24 25 23 18 17 19 20 22 23 21 19 17 16 14 16 28 39 36 32 31 28 27 26 24 24 23 23 23 22 22 22 22 21 21 21 21 21 21 21 20 20 20 20 20 19 18 16 15 13 11 9 8 8 8 8 9 9 9 8 8 8 8 9 10
46 46 46 46 47 47 46 46 47 47 48 46 45 43 42 42 39 37 36 32 29 28 27 27 26 19 17 18 19 21 21 19 18 14 14 14 14 24 40 39 32 32 30 28 27 25 25 24 24 24 25 24 23 22 21 20 21 21 21 22 21 21 21 21 21 21 20 19 18 17 15 13 11 10 9 9 9 10 10 10 10 9 9 8 9 10
46 45 45 45 46 46 45 46 47 48 48 48 46 45 44 42 41 39 37 33 31 32 31 29 27 21 18 19 19 19 20 18 17 14 13 14 12 17 33 38 31 31 31 28 28 26 25 24 24 24 24 24 23 22 21 21 21 21 21 21 21 20 21 21 22 22 21 20 19 18 17 15 14 13 11 10 10 10 10 11 11 11 10 9 9 10
45 44 44 45 45 45 46 46 47 48 48 48 46 44 43 42 42 41 39 37 35 34 33 30 27 23 21 21 19 18 18 17 16 15 12 13 11 10 23 34 33 32 31 30 28 27 27 26 25 25 24 23 22 22 22 21 21 21 20 19 19 19 19 20 20 21 21 20 19 18 17 17 16 15 13 12 11 11 11 12 12 12 11 10 10 11
44 43 43 45 44 44 46 46 47 48 48 47 46 45 44 43 43 42 40 40 38 36 33 28 26 24 21 20 19 18 18 16 15 14 12 13 13 11 16 28 35 36 34 32 30 27 27 27 27 26 25 24 23 21 21 20 19 19 18 17 17 18 18 18 17 18 19 20 19 18 18 17 17 17 16 14 13 12 13 13 13 13 12 12 12 12
42 42 42 43 43 43 46 47 48 48 48 47 47 46 45 44 43 41 40 38 37 35 32 28 26 22 19 20 21 18 17 17 15 13 11 12 15 15 14 20 31 39 36 31 29 27 26 27 27 27 26 25 24 22 21 19 18 18 17 17 17 18 17 17 16 16 18 19 20 19 18 18 18 17 17 17 16 15 14 14 14 14 14 14 14 13
40 41 41 42 43 43 45 47 47 47 47 46 47 46 46 45 44 42 40 38 37 34 31 29 27 22 19 21 22 20 18 18 16 14 13 13 14 16 14 13 23 37 39 33 31 29 27 27 27 27 27 26 25 23 21 19 18 17 17 17 17 17 17 17 16 16 18 19 20 20 20 19 19 18 17 18 18 18 16 15 15 15 16 16 16 16
36 38 40 41 42 42 43 45 45 45 45 44 44 45 44 45 44 43 43 41 38 35 33 31 28 24 21 22 24 24 20 18 18 16 14 14 15 16 15 11 15 29 39 39 37 35 32 31 30 29 28 27 26 24 22 21 19 18 18 18 18 17 17 17 17 17 18 18 19 20 20 19 19 18 18 18 19 20 19 18 17 16 17 18 18 18
31 35 37 39 40 40 41 42 43 44 44 42 42 42 43 44 44 44 44 41 38 36 34 32 29 26 24 24 25 27 23 18 19 18 16 15 15 15 15 12 12 19 27 32 36 37 37 36 35 32 31 29 28 26 24 23 22 20 19 19 18 18 19 18 18 18 17 17 18 18 19 19 18 18 18 19 20 21 21 20 18 17 18 18 19 19
27 31 35 36 38 39 39 40 41 42 42 43 42 42 43 44 44 44 44 42 39 37 35 33 31 27 25 25 25 27 24 19 18 18 16 16 16 16 15 13 12 13 15 19 24 29 34 38 38 36 33 31 31 29 26 24 24 22 20 20 20 20 21 21 21 20 18 18 18 17 18 18 18 18 18 19 21 22 22 22 21 19 19 18 19 19
25 26 31 34 36 38 38 37 39 41 42 43 43 43 43 43 43 44 43 43 41 39 37 36 33 29 27 26 26 25 23 19 19 18 15 15 14 15 15 13 12 11 11 13 14 16 20 26 31 35 37 35 33 32 29 26 25 23 22 22 23 23 24 24 23 22 21 21 21 20 19 19 19 19 19 19 20 21 22 22 22 22 21 19 19 19
25 24 28 32 33 36 38 38 39 41 42 43 43 43 43 43 44 43 43 43 43 41 40 38 34 31 30 29 28 25 22 19 20 19 16 15 14 13 12 11 10 9 9 9 10 10 11 13 17 24 34 39 37 33 31 29 27 26 26 26 25 24 25 25 24 23 22 22 24 24 23 22 22 22 21 21 20 21 22 23 24 24 23 22 20 19
25 22 27 31 31 33 37 37 38 40 42 43 43 43 43 43 44 43 43 43 43 41 41 40 37 34 33 32 30 29 24 21 21 20 19 18 16 13 12 12 11 10 9 8 9 9 10 13 14 15 23 34 39 35 32 30 30 30 29 28 27 26 27 27 26 25 23 23 25 27 27 26 24 23 24 23 22 22 22 23 24 25 25 24 22 21
26 24 28 31 30 31 34 35 36 38 40 42 42 42 42 42 43 43 43 42 41 41 40 40 39 37 36 34 33 31 29 26 24 22 21 20 19 16 15 15 14 12 11 10 10 10 13 15 16 13 14 23 30 32 31 31 31 30 30 30 29 28 28 27 27 27 26 25 26 27 28 28 27 26 26 25 25 25 24 23 23 24 25 26 25 24
30 27 29 32 30 30 33 34 34 36 38 40 41 41 41 42 43 43 43 41 40 40 39 38 38 37 36 36 35 34 32 30 28 27 25 24 22 21 20 20 19 17 16 16 15 15 17 16 14 13 14 16 20 24 27 28 29 30 31 31 31 31 30 28 27 28 27 27 26 26 26 27 28 29 29 28 29 29 27 25 24 24 25 26 27 26
34 30 31 34 33 30 33 35 34 35 37 38 39 40 41 42 42 43 43 42 41 39 38 38 37 36 35 35 35 35 34 31 31 31 30 28 27 26 25 25 24 24 23 23 23 22 23 20 17 16 16 15 16 19 22 24 26 28 30 30 31 31 30 28 27 28 28 28 28 28 27 27 28 30 29 31 33 33 31 29 27 26 25 26 28 28
36 33 32 34 35 33 33 35 35 34 35 36 38 39 40 41 42 42 42 43 42 40 39 38 37 36 37 35 34 34 33 32 31 31 31 30 29 29 28 27 27 27 27 27 27 27 27 26 23 21 20 18 17 18 20 22 25 27 26 25 25 26 27 26 26 26 28 29 29 29 27 26 27 28 28 28 32 34 35 32 29 28 27 26 27 28
35 35 33 34 36 37 36 35 35 34 34 34 35 37 39 40 41 41 41 42 43 42 40 39 37 37 37 36 34 34 33 32 31 30 30 30 30 29 28 26 26 27 27 28 28 29 29 28 26 25 24 23 22 20 20 21 23 25 23 22 22 24 24 25 25 25 25 25 26 26 25 24 25 25 24 24 25 30 36 35 31 30 29 27 26 27
31 34 33 33 35 37 39 39 36 34 34 33 33 34 36 38 40 41 41 41 42 42 42 40 39 38 37 37 36 35 34 31 30 29 29 29 28 28 27 26 25 25 26 26 27 28 28 27 27 27 27 27 27 25 23 22 22 23 23 21 22 24 24 24 24 24 23 23 24 24 23 21 21 21 20 20 20 23 31 35 34 32 30 28 27 27
27 31 31 31 33 34 37 41 39 36 35 35 34 34 34 36 38 40 40 40 40 41 41 41 41 41 40 38 37 35 32 29 27 27 27 28 28 28 27 26 26 25 25 25 25 26 26 26 26 28 28 28 29 28 27 26 25 25 24 23 24 25 25 25 25 24 23 23 23 23 22 20 20 20 19 18 18 19 24 30 33 33 31 29 28 28
23 27 27 28 31 30 30 35 40 40 38 37 37 36 35 34 35 37 39 39 39 39 40 41 42 41 40 39 38 37 34 31 29 28 27 28 28 28 27 26 26 25 25 24 25 25 25 24 25 27 28 29 29 29 29 29 28 27 26 26 26 26 26 26 26 25 24 23 22 22 21 20 20 20 19 18 18 18 19 24 29 31 30 29 29 29
19 23 24 24 27 27 25 28 34 39 41 40 39 38 36 35 34 35 36 38 39 39 39 39 39 39 39 39 39 39 37 35 33 31 30 29 28 28 28 27 27 27 26 25 24 24 25 25 25 26 27 27 27 28 28 29 29 29 28 28 28 28 28 27 27 27 26 25 24 23 22 21 21 20 19 19 20 20 19 21 25 28 28 28 29 29
17 20 22 22 23 24 23 23 25 30 34 36 39 40 38 36 35 35 35 36 38 38 39 39 38 37 36 35 36 37 38 38 36 35 34 32 31 30 29 28 28 28 27 26 26 26 27 28 28 28 29 28 28 28 28 28 29 29 29 30 30 30 29 29 28 28 27 27 26 24 23 23 23 21 18 17 18 19 17 17 20 23 24 25 26 26
18 18 20 20 19 21 22 23 24 25 26 28 31 35 37 37 37 36 36 36 38 38 38 39 39 38 37 34 32 32 33 36 37 37 38 37 36 35 34 32 32 31 29 29 29 29 29 30 30 30 31 30 30 29 29 30 30 30 30 31 32 32 32 31 31 31 30 30 30 27 24 24 24 23 19 15 14 14 13 12 14 17 19 21 22 23
16 18 19 19 19 19 20 23 25 27 28 28 28 29 31 34 37 38 38 38 39 40 40 40 39 38 37 36 34 31 30 31 33 35 37 38 40 41 40 38 37 36 34 33 33 33 32 31 31 32 32 31 31 31 31 31 31 32 32 32 32 33 33 32 32 33 33 33 33 31 29 28 26 25 24 21 18 16 15 14 15 16 18 19 19 20
13 15 17 19 19 19 20 21 24 26 30 32 32 30 29 29 31 36 39 40 41 42 42 42 42 40 39 38 36 35 33 32 33 35 37 38 40 42 42 43 43 42 39 37 36 36 35 34 33 33 33 33 33 33 32 31 32 33 33 33 34 34 34 34 33 33 33 32 33 33 31 30 28 27 28 27 24 20 18 18 18 19 20 20 19 19
11 12 13 15 16 17 18 19 21 23 26 30 32 31 31 29 29 32 35 37 41 43 44 45 44 43 42 41 39 38 37 36 37 38 38 40 40 40 40 43 45 44 42 41 40 38 38 37 36 35 35 35 35 36 35 35 34 33 33 34 34 35 35 35 36 36 34 32 31 31 31 31 30 29 30 30 28 24 21 21 21 21 21 21 21 20
9 10 11 12 12 13 14 15 17 18 21 26 28 29 30 32 33 33 31 31 33 37 41 44 45 46 45 44 43 42 40 40 41 41 41 41 41 41 41 43 44 42 42 43 43 41 40 40 39 39 38 38 37 37 37 38 38 37 35 34 35 36 36 36 37 38 37 35 33 31 31 32 32 32 32 32 31 28 26 25 25 24 23 22 23 23
6 7 8 9 10 11 12 13 14 15 17 20 23 24 26 29 33 34 33 32 32 32 34 37 40 42 44 44 44 43 41 42 43 44 44 42 42 42 42 42 41 40 41 43 44 44 43 42 41 41 41 41 40 39 39 39 40 40 39 38 36 36 37 37 37 37 37 38 38 36 35 34 34 34 34 34 33 32 29 28 29 29 27 25 25 25
5 5 5 6 7 8 9 10 12 13 15 17 18 20 22 24 27 30 32 33 34 34 34 35 36 38 40 41 42 42 41 42 43 44 44 43 43 45 43 40 39 39 39 42 44 45 45 45 43 43 42 42 42 42 41 41 41 41 41 40 39 38 37 37 37 37 37 38 38 39 38 37 36 36 35 35 36 35 33 31 31 32 32 30 29 28
4 4 4 4 4 5 6 7 8 10 12 14 16 18 19 21 23 26 27 29 30 32 33 35 37 39 41 41 41 41 41 42 43 44 44 43 43 45 45 42 40 39 38 38 40 42 43 44 44 44 44 44 44 43 43 43 43 43 43 42 41 40 38 37 37 37 38 38 39 39 39 39 39 39 37 37 38 37 36 35 34 34 34 34 33 32
4 4 4 4 5 5 5 6 8 9 10 12 14 15 17 19 20 23 24 26 27 28 30 31 34 38 42 44 44 43 42 42 42 43 44 43 42 43 43 42 43 43 42 41 41 42 44 45 45 46 46 46 46 46 46 46 46 46 45 44 43 41 40 39 39 38 38 39 39 40 40 40 40 41 40 39 39 39 38 38 37 37 37 37 36 35
7 7 6 6 6 6 6 7 8 10 11 13 14 15 17 18 19 21 22 24 25 26 27 28 30 33 37 42 45 45 45 44 43 44 44 44 44 44 44 43 44 46 46 45 45 46 48 48 49 50 50 50 50 49 49 49 49 50 50 49 48 46 45 43 42 42 41 41 41 41 42 42 42 42 41 41 41 41 40 40 40 39 39 39 39 38
11 10 10 9 9 9 9 9 10 11 13 14 16 17 18 20 21 22 23 24 25 26 26 27 29 30 33 36 40 43 45 45 45 45 45 46 46 47 46 45 45 46 46 45 45 46 47 47 48 49 51 52 52 52 51 51 51 52 52 53 53 52 51 49 47 45 45 45 45 44 44 43 43 43 43 43 42 42 42 42 42 42 41 41 41 41
14 14 13 13 12 12 13 13 14 15 16 16 17 18 20 21 22 24 25 25 26 28 28 29 29 30 31 33 36 39 42 44 45 46 47 48 48 49 48 47 46 46 46 46 46 46 46 47 47 47 47 49 50 51 52 52 52 53 53 54 54 54 53 53 52 50 48 48 48 48 48 47 46 46 45 45 45 44 44 44 44 44 43 43 43 43
16 16 15 15 14 15 16 16 16 18 18 19 19 20 21 22 23 24 26 27 28 29 30 31 32 32 32 33 34 36 39 42 44 46 47 48 49 50 50 50 49 48 47 47 48 48 49 49 49 48 48 48 49 49 50 50 50 50 50 52 54 54 53 53 53 52 51 50 50 50 50 50 50 49 48 48 47 47 47 47 46 46 46 46 46 45
17 17 17 17 16 16 18 18 19 20 21 21 22 22 23 23 24 25 26 27 29 30 31 33 34 35 35 35 35 36 37 39 42 45 47 48 50 50 51 51 51 50 49 49 49 50 50 49 50 50 49 49 50 51 51 51 51 50 49 50 52 54 54 54 54 53 53 52 52 52 53 52 52 52 51 50 50 49 49 49 49 49 49 48 48 48
Wind_Direction
200 201 204 205 206 207 206 205 205 205 206 207 196 193 203 205 202 200 198 202 198 192 190 186 185 185 180 178 182 191 193 190 187 185 185 185 182 176 171 181 188 185 186 186 185 183 182 180 179 175 170 169 170 170 170 169 162 155 152 148 143 139 136 135 134 133 134 134 134 133 132 132 131 131 130 127 125 124 123 123 122 120 120 120 121 123
200 200 199 200 204 206 206 206 207 206 206 208 201 196 204 206 202 199 199 204 203 198 196 190 189 189 186 186 186 192 200 199 193 186 188 190 190 185 177 181 188 185 185 188 189 188 186 184 182 178 177 176 175 174 172 172 170 163 159 155 149 145 142 141 141 141 142 142 143 142 140 140 138 137 137 135 133 132 131 129 128 126 126 125 125 126
200 198 196 197 202 205 206 206 206 207 206 207 206 203 203 203 201 200 202 208 210 206 202 197 198 197 194 192 190 190 197 201 197 190 189 190 192 193 185 180 180 179 183 188 189 191 190 188 186 183 183 183 180 177 174 174 176 172 166 162 158 154 151 150 150 150 151 153 152 150 150 149 147 144 142 142 141 140 139 136 136 134 133 133 134 133
200 195 195 198 202 205 206 205 204 207 206 205 206 207 207 209 211 208 202 205 212 209 202 201 206 206 206 204 199 199 201 203 203 198 194 192 191 194 192 181 174 176 181 185 188 191 192 191 190 189 187 187 183 180 178 178 179 179 172 170 168 162 159 158 158 161 161 161 158 155 155 156 156 154 151 148 148 149 148 146 145 143 141 142 143 141
200 196 198 200 202 205 206 204 203 206 207 203 202 207 210 209 210 209 204 206 211 210 206 205 209 209 211 211 207 210 209 208 211 208 202 199 196 197 195 184 176 178 179 180 185 190 192 193 194 193 190 189 187 184 183 181 182 184 178 176 176 171 168 166 166 170 167 162 158 154 156 163 165 164 162 160 158 161 162 159 157 155 154 153 152 150
199 198 201 202 203 206 206 204 204 205 207 202 197 203 207 203 203 205 206 210 212 211 209 207 208 212 213 215 216 218 217 211 211 211 208 205 202 200 197 188 183 183 180 179 183 188 191 192 195 196 193 191 190 189 187 185 185 186 184 182 182 179 176 173 172 175 171 163 160 160 165 173 174 172 170 169 168 171 174 173 171 170 170 167 163 160
200 200 203 204 205 207 207 205 205 206 207 203 195 196 201 199 201 203 204 209 211 212 212 208 208 213 214 218 225 225 222 217 212 210 211 209 204 202 199 192 190 189 184 181 183 188 191 191 193 196 195 193 193 192 191 190 189 190 190 188 187 185 183 180 179 179 174 170 173 176 179 183 181 177 175 176 177 180 184 184 183 183 185 184 180 176
202 203 204 205 206 208 207 206 207 209 210 205 195 190 194 198 202 206 208 210 213 216 217 214 212 215 214 218 230 233 228 224 219 212 211 210 206 204 200 195 195 192 188 186 184 187 190 192 195 196 195 194 195 194 193 194 195 194 193 192 192 190 187 186 185 179 174 177 186 190 191 193 190 184 181 181 182 184 188 189 190 191 193 197 199 195
204 205 206 207 208 208 207 206 208 212 214 209 198 188 190 199 204 209 213 213 216 221 223 221 220 221 222 224 231 237 234 231 230 220 213 210 206 204 201 198 198 195 190 188 186 185 184 189 197 198 195 195 195 195 195 197 199 199 196 195 196 194 190 191 189 184 181 183 191 196 197 199 197 191 188 187 185 186 187 188 192 197 199 204 207 207
205 206 207 209 210 210 209 207 208 212 216 215 205 193 190 198 205 209 211 215 219 223 225 228 228 226 229 231 232 235 235 234 234 227 219 210 203 201 201 199 200 197 192 191 192 190 184 185 196 200 197 197 198 197 197 198 200 202 201 199 200 198 192 193 193 190 190 190 192 197 199 201 199 194 192 192 190 189 189 188 192 201 205 209 212 214
205 206 207 210 211 211 210 208 207 209 214 217 213 202 195 199 206 210 212 218 221 222 227 233 235 233 233 234 235 234 234 236 235 232 230 215 202 198 198 197 198 198 194 194 196 195 189 184 191 198 199 201 201 198 198 200 199 202 204 203 205 204 198 196 198 199 199 195 193 197 200 200 199 196 192 192 193 192 193 194 196 204 209 213 215 217
205 205 207 209 212 212 211 209 207 207 210 214 216 210 203 204 209 213 216 220 221 221 227 234 238 238 236 236 236 235 234 236 238 236 240 222 204 198 196 195 196 197 196 196 197 197 191 181 180 189 197 201 201 198 198 201 200 201 204 205 207 210 206 202 202 206 208 202 197 199 203 201 199 198 194 193 196 195 192 194 198 203 207 209 211 215
205 205 206 208 211 212 212 210 208 208 209 212 214 213 211 211 213 216 219 221 220 219 226 233 239 239 236 236 236 236 235 235 238 238 241 236 211 202 197 196 197 198 198 198 198 196 189 178 172 179 190 193 195 197 198 200 200 201 203 205 208 211 211 209 207 210 213 211 205 204 207 205 199 200 200 200 202 200 195 196 199 201 204 205 206 210
205 204 205 208 210 211 212 211 210 209 210 212 213 213 216 218 218 220 223 225 223 222 226 233 238 235 234 238 237 235 236 236 238 238 239 248 231 211 201 197 198 200 200 201 199 194 188 180 175 175 181 187 190 195 197 198 199 200 202 205 209 211 213 214 213 213 215 216 213 210 211 210 203 202 205 205 207 207 203 203 205 202 203 204 203 208
205 204 205 207 210 211 212 212 211 211 212 213 214 214 218 222 224 226 229 230 228 228 231 236 236 230 230 237 236 233 236 237 240 242 240 251 253 224 207 198 197 200 201 201 199 195 189 184 181 179 180 184 189 193 195 196 199 200 202 206 209 211 212 214 215 215 215 215 215 214 214 212 206 203 206 207 209 211 210 209 210 207 205 204 204 207
205 205 205 206 209 211 212 213 211 212 212 213 214 214 217 222 224 227 229 230 231 231 232 235 235 228 225 233 234 232 235 238 240 243 239 243 259 234 212 199 196 200 201 200 198 196 192 187 185 184 184 185 189 192 194 196 199 200 202 205 208 211 213 215 217 217 216 216 215 215 216 216 211 208 209 209 210 214 215 214 213 212 209 208 208 210
206 205 205 206 208 209 211 212 213 213 213 214 215 214 216 220 222 224 227 227 228 230 229 229 229 220 216 225 230 230 233 237 238 239 236 238 255 237 211 200 197 202 203 201 198 196 194 190 188 189 189 189 190 194 195 197 201 202 203 205 207 211 214 216 218 220 219 218 217 217 218 218 216 214 213 211 212 215 219 221 218 217 213 208 210 213
205 205 205 206 207 208 209 211 213 213 214 215 216 216 216 219 222 223 225 227 227 228 226 226 225 217 211 218 225 228 229 232 236 235 234 234 240 231 208 202 201 204 206 204 200 197 194 191 190 191 192 194 196 198 198 200 204 206 206 207 209 213 216 218 220 222 222 221 220 218 219 220 220 221 220 217 215 214 217 221 222 223 218 212 213 214
206 205 206 206 206 207 208 211 213 213 214 215 216 217 216 219 223 223 225 227 227 228 226 225 226 220 212 215 221 226 225 225 229 228 229 232 228 219 211 209 206 205 208 206 201 199 197 195 193 193 193 195 202 206 206 204 205 208 210 209 211 216 219 221 222 223 224 224 224 222 221 221 222 224 224 222 222 221 218 219 221 223 222 221 219 216
207 206 207 206 205 207 208 210 212 214 215 214 215 216 216 219 223 225 227 229 230 230 229 227 226 221 211 212 218 223 223 222 222 220 221 231 231 223 218 220 215 209 207 208 206 202 200 199 198 197 197 197 202 210 212 211 208 208 210 210 212 216 218 217 216 217 220 221 223 224 223 222 222 223 225 225 225 225 224 223 222 221 221 223 224 222
209 207 208 207 204 206 209 210 212 214 216 216 216 217 216 218 221 224 228 230 230 232 232 229 226 219 210 211 214 219 224 221 217 216 216 226 238 232 224 229 222 209 202 204 208 206 204 206 204 202 201 201 204 209 213 216 213 209 210 212 213 215 216 215 213 213 215 216 218 221 223 224 224 224 225 227 228 227 227 226 226 224 221 220 221 222
209 207 208 208 205 205 208 209 211 214 216 218 220 220 219 220 221 223 226 228 228 230 231 230 226 219 217 219 214 213 218 220 217 216 218 225 241 244 233 228 218 208 203 202 204 203 202 207 210 206 203 204 206 208 211 215 216 211 211 213 215 217 217 215 213 214 215 215 215 217 220 223 225 227 228 230 232 232 229 228 228 228 227 224 222 222
209 207 208 208 205 205 207 208 210 212 214 215 218 220 222 223 223 225 227 229 229 230 231 231 228 221 220 228 222 210 209 216 216 216 220 226 238 249 245 235 219 214 213 209 207 206 203 206 211 208 204 206 207 208 211 214 215 213 212 213 215 220 223 220 217 217 219 221 221 221 221 221 220 222 225 230 234 235 234 232 231 231 232 232 229 226
208 206 206 207 205 204 206 207 208 210 212 213 214 217 219 222 224 226 228 230 231 232 233 233 232 223 219 232 229 208 200 210 213 214 221 227 234 243 246 245 234 228 225 217 214 213 209 209 213 211 208 209 209 210 212 215 217 218 218 216 214 217 224 226 224 222 222 226 229 232 234 233 228 222 221 226 232 235 235 234 233 233 234 236 235 234
207 207 204 204 205 203 203 205 206 207 209 212 213 215 218 220 223 226 227 229 229 230 232 232 231 225 220 231 233 210 195 205 212 210 216 221 228 236 241 245 245 240 235 227 225 223 215 213 216 216 215 212 210 210 212 214 218 221 223 224 221 220 224 228 230 229 228 228 230 232 236 241 241 235 227 225 229 234 236 235 233 233 235 237 238 237
203 206 201 201 204 204 202 203 205 206 207 210 212 214 217 219 222 224 225 228 230 230 231 232 230 226 222 226 234 225 205 203 211 213 214 217 220 226 232 237 242 245 246 240 236 235 228 223 224 224 221 216 212 210 211 213 218 220 223 226 227 227 227 228 230 231 231 233 234 232 232 237 242 242 237 231 230 234 237 236 234 232 233 236 239 239
198 202 200 199 202 204 204 205 206 206 207 209 211 213 215 217 221 223 224 227 230 230 232 233 232 230 227 224 230 235 225 213 213 215 216 218 220 222 226 228 230 238 248 249 245 239 234 232 232 231 225 218 214 210 209 213 218 220 222 225 228 231 231 230 232 231 229 233 238 238 235 236 240 244 244 240 235 235 237 238 236 233 231 232 235 238
195 197 199 199 200 201 202 204 206 207 208 210 212 214 215 217 220 223 224 226 229 230 231 234 234 233 232 228 227 232 235 230 225 223 222 222 225 229 233 232 230 235 242 251 255 245 236 235 234 232 228 220 216 214 213 215 220 223 225 227 228 231 233 233 234 234 232 233 238 241 240 241 243 244 244 244 243 239 238 240 240 237 233 231 231 234
194 197 198 198 199 200 200 202 205 207 209 211 213 215 217 218 220 222 224 225 228 230 231 233 234 235 235 234 229 229 234 237 237 237 236 235 236 239 244 244 243 244 248 255 262 253 246 248 246 240 235 227 224 225 224 223 224 226 228 230 230 231 235 237 236 238 238 239 241 243 245 247 248 245 241 242 244 242 237 236 238 238 235 232 231 232
194 199 199 196 197 199 200 202 204 206 209 211 213 216 218 220 222 223 224 225 227 230 231 232 234 235 236 236 234 232 234 238 240 240 242 245 247 250 252 253 253 253 254 257 261 260 260 264 265 258 251 241 234 235 234 231 229 229 229 231 232 233 237 240 240 240 240 242 243 245 248 252 254 252 248 245 244 242 237 234 234 235 235 234 233 233
196 202 203 197 195 196 199 202 204 206 209 211 214 217 219 221 223 225 226 227 228 229 231 232 233 235 237 238 238 237 238 240 242 242 243 247 252 256 257 257 256 256 257 258 259 261 264 266 264 260 258 253 245 240 239 236 235 234 234 235 236 235 236 239 241 240 240 241 243 245 249 254 256 259 260 255 250 243 237 234 234 234 235 234 234 235
199 205 207 202 197 195 197 202 206 207 209 211 214 218 220 222 224 226 227 229 230 230 231 232 233 235 238 240 240 240 241 242 244 246 248 251 254 257 258 257 256 256 256 258 258 259 261 261 259 255 252 251 248 244 242 241 240 240 241 242 241 240 240 241 241 239 239 241 243 245 249 252 254 258 261 262 257 246 238 236 235 234 234 233 233 235
203 205 209 209 204 200 198 200 205 209 211 214 215 218 222 224 225 227 229 230 231 232 232 233 233 234 236 239 241 242 242 244 246 248 250 252 253 254 254 255 255 254 254 255 255 256 255 255 254 252 248 247 246 244 242 241 241 243 246 246 244 243 243 244 242 238 237 239 243 246 250 251 253 258 259 261 261 251 242 238 235 232 232 232 231 233
209 207 210 212 209 205 201 201 203 206 211 215 217 219 222 225 227 229 230 232 233 234 234 234 235 235 236 237 240 241 241 241 243 245 247 248 248 249 250 252 253 253 252 252 252 252 252 250 250 250 248 245 243 241 239 239 238 240 242 244 244 244 243 244 244 241 238 238 240 243 248 250 253 257 259 260 262 256 246 238 233 230 230 230 231 234
220 218 221 220 215 211 206 204 204 204 208 212 215 218 221 224 227 230 232 234 236 236 237 237 237 238 237 237 238 240 239 238 238 239 242 244 245 246 247 249 251 252 251 251 251 252 251 249 247 247 248 246 243 240 237 236 235 236 237 239 241 242 242 243 244 242 240 241 242 242 245 247 248 249 252 257 260 257 246 234 228 228 230 230 231 234
229 231 236 235 231 226 218 212 210 209 210 213 214 216 219 221 225 228 231 234 236 238 239 240 240 241 240 239 239 240 240 239 238 238 240 242 244 245 246 248 250 251 250 250 250 249 248 246 243 243 245 245 244 242 238 235 234 233 234 236 238 239 240 241 243 244 244 245 246 245 242 240 242 248 252 253 251 247 240 230 226 228 231 231 231 234
228 234 239 242 244 242 237 231 225 217 215 217 217 216 216 217 221 225 228 231 234 236 238 240 241 241 241 241 241 242 243 242 240 239 240 241 242 243 246 247 249 250 249 249 248 246 244 243 242 241 242 243 242 242 241 239 235 233 233 235 237 239 240 240 242 245 246 244 244 244 240 237 240 246 252 249 242 236 230 224 225 228 229 230 231 232
224 231 238 243 246 247 246 246 242 234 228 226 224 222 220 220 222 224 227 230 232 234 237 239 241 241 241 240 239 239 242 244 243 242 241 241 241 243 245 247 248 248 247 246 246 245 243 242 242 242 242 242 242 241 241 241 240 238 236 236 238 240 241 242 242 244 245 244 242 240 237 237 238 240 242 242 240 237 231 223 224 227 226 227 229 229
221 227 234 242 248 249 249 249 247 243 241 237 233 230 229 230 230 229 229 230 231 232 234 236 239 240 241 241 239 237 238 240 241 241 241 242 244 244 245 246 246 245 243 242 243 244 244 243 242 241 241 241 242 241 240 240 242 242 240 240 240 241 242 243 244 245 244 244 243 242 241 241 241 238 236 238 242 246 245 237 232 229 226 226 226 225
216 222 227 235 244 248 250 250 249 246 244 243 241 238 236 236 236 234 232 232 232 232 233 234 236 237 239 240 241 240 237 236 237 239 240 242 243 242 243 244 243 240 238 238 239 241 242 242 241 240 240 239 239 240 240 239 240 241 242 242 242 242 241 241 242 244 244 243 245 246 244 244 243 237 233 235 239 242 243 241 237 233 231 232 231 229
205 213 218 226 235 242 246 249 251 250 247 247 250 250 246 245 244 242 238 235 234 233 233 234 235 237 238 239 241 240 239 238 239 239 237 237 236 234 235 238 239 236 233 234 236 237 238 239 240 241 241 239 238 238 238 239 239 240 241 242 243 243 243 241 240 242 244 245 246 245 241 240 241 238 233 231 233 236 239 240 240 237 235 235 236 236
194 201 208 214 222 232 239 245 249 252 250 250 254 256 254 252 252 253 251 247 243 240 236 234 234 237 239 241 242 242 241 240 241 241 239 238 237 235 234 237 238 236 233 232 234 236 238 239 241 242 243 243 242 240 239 238 239 239 239 240 242 242 243 243 242 241 242 243 244 243 240 237 238 239 237 233 233 236 240 241 240 238 237 236 237 238
175 185 196 204 211 218 225 233 239 245 248 250 253 255 255 253 253 256 257 257 255 251 243 238 235 236 238 240 241 243 242 241 241 241 241 240 238 238 239 240 240 238 234 232 233 236 239 241 242 244 245 245 245 243 241 240 239 239 239 239 241 242 242 243 243 243 243 243 244 246 246 242 239 240 240 238 236 238 241 241 239 239 239 239 240 241
156 167 180 193 204 213 219 224 230 234 238 243 246 248 249 250 252 254 256 256 256 255 251 246 240 238 239 240 242 243 243 241 240 240 240 239 238 239 240 241 239 237 235 234 235 237 239 241 243 244 245 245 245 245 244 242 240 239 238 239 240 241 243 244 245 245 245 245 246 248 248 247 244 242 242 241 240 241 242 242 240 239 240 242 244 246
163 172 182 191 206 221 230 235 239 240 241 243 244 245 245 246 246 248 250 250 251 251 251 249 246 243 242 242 243 244 243 242 241 240 240 240 241 242 243 241 240 239 236 234 235 237 239 242 243 244 243 243 244 244 244 243 241 239 238 238 239 241 243 244 246 247 247 247 247 247 247 247 247 246 245 244 243 243 244 244 243 243 243 245 248 250
201 203 205 214 227 237 247 254 258 260 260 260 259 257 255 253 250 248 247 246 246 245 245 245 244 243 243 242 242 242 241 241 242 242 241 241 242 244 244 242 241 243 242 240 238 239 242 245 246 246 244 243 243 243 243 244 244 243 241 240 241 242 244 245 247 248 249 248 248 247 247 247 247 247 247 247 246 245 245 246 246 247 248 249 251 252
231 232 233 240 248 253 257 262 266 270 272 273 273 271 269 267 264 260 257 254 251 248 245 243 242 241 241 242 241 241 240 240 241 242 243 243 242 243 244 243 243 244 246 246 245 245 245 246 247 247 246 245 244 244 245 245 246 247 247 247 247 247 248 248 248 247 248 249 249 248 247 247 247 247 247 247 246 246 246 247 248 249 250 251 252 253
240 240 242 247 253 259 265 271 276 278 278 277 276 275 274 273 272 269 267 265 262 258 255 251 248 245 243 242 241 241 241 240 241 241 242 242 243 244 245 245 246 247 247 248 248 247 246 244 244 245 245 246 246 246 247 247 247 248 249 251 252 252 252 252 250 248 247 247 248 248 248 247 246 246 246 246 246 246 246 247 248 249 250 251 252 253
247 247 248 251 257 263 270 276 280 281 280 278 277 276 275 275 274 272 270 269 267 265 262 259 256 253 249 246 244 243 242 242 242 242 242 242 243 244 245 246 247 248 248 248 248 248 248 247 246 246 246 246 247 247 247 248 249 249 249 250 252 254 254 253 252 250 248 246 246 247 247 248 247 247 246 246 246 246 247 247 248 249 250 251 252 253
255 255 255 256 261 268 272 276 278 279 280 280 279 278 278 277 276 275 273 271 269 267 265 263 260 258 255 252 249 247 245 244 243 243 243 244 244 244 244 245 246 247 248 248 249 249 249 249 249 249 249 248 248 247 247 248 249 250 249 249 250 251 251 250 250 249 248 247 246 245 246 247 248 248 248 248 247 247 248 248 249 249 250 251 252 253
258 258 257 258 263 270 274 275 277 279 280 280 279 279 279 279 278 276 275 273 271 269 267 264 262 260 258 255 253 250 248 247 245 244 244 244 244 244 244 245 245 246 246 246 247 248 249 249 249 249 249 249 249 249 248 249 251 252 253 253 251 250 248 246 246 246 246 246 246 245 245 246 247 248 249 250 250 250 251 251 251 252 252 253 254 255
Height
5853 5857 5861 5867 5871 5874 5878 5880 5881 5882 5883 5885 5889 5891 5892 5894 5897 5898 5899 5901 5903 5904 5905 5906 5908 5909 5910 5911 5912 5914 5915 5916 5917 5919 5920 5921 5922 5923 5923 5925 5926 5928 5929 5931 5932 5934 5936 5937 5938 5940 5941 5942 5943 5944 5945 5945 5946 5946 5947 5948 5948 5949 5950 5950 5951 5952 5952 5953 5954 5954 5955 5956 5956 5957 5957 5958 5958 5959 5959 5959 5960 5960 5960 5961 5961 5961
5851 5855 5861 5866 5870 5872 5874 5876 5879 5881 5883 5885 5888 5890 5891 5892 5895 5897 5898 5899 5901 5902 5903 5905 5906 5908 5909 5910 5911 5913 5914 5915 5917 5918 5920 5921 5922 5923 5923 5924 5926 5927 5929 5931 5932 5934 5936 5937 5938 5939 5941 5942 5943 5944 5944 5945 5947 5947 5947 5948 5949 5950 5951 5951 5952 5952 5953 5954 5954 5955 5956 5956 5957 5957 5958 5959 5959 5959 5960 5960 5961 5961 5961 5962 5962 5963
5848 5854 5860 5864 5866 5868 5870 5873 5877 5880 5882 5884 5886 5889 5890 5892 5895 5896 5897 5899 5901 5902 5903 5905 5907 5908 5909 5909 5910 5912 5913 5914 5916 5917 5918 5920 5922 5923 5923 5924 5926 5927 5929 5931 5932 5934 5935 5937 5938 5939 5940 5941 5943 5944 5944 5945 5947 5948 5948 5949 5950 5950 5951 5952 5952 5953 5953 5954 5955 5955 5956 5957 5958 5958 5959 5959 5960 5960 5960 5961 5961 5962 5962 5963 5963 5964
5848 5854 5859 5861 5863 5865 5868 5872 5876 5878 5880 5883 5885 5887 5889 5891 5893 5894 5897 5900 5902 5902 5904 5905 5906 5907 5909 5910 5911 5911 5912 5913 5915 5916 5917 5919 5920 5922 5923 5924 5926 5927 5928 5930 5931 5933 5934 5936 5937 5938 5940 5941 5943 5944 5944 5945 5946 5948 5949 5949 5950 5951 5951 5952 5953 5953 5953 5954 5955 5956 5957 5957 5958 5959 5959 5960 5961 5961 5961 5962 5962 5963 5963 5964 5964 5964
5849 5854 5856 5858 5861 5863 5866 5870 5874 5876 5879 5881 5883 5886 5888 5889 5890 5892 5896 5899 5900 5902 5903 5905 5906 5907 5908 5909 5910 5911 5911 5912 5914 5915 5917 5918 5919 5921 5922 5923 5925 5926 5927 5928 5930 5931 5933 5934 5936 5937 5939 5941 5942 5943 5943 5945 5946 5947 5949 5950 5951 5951 5951 5952 5952 5953 5954 5955 5956 5956 5957 5958 5959 5959 5960 5961 5961 5962 5962 5963 5963 5963 5964 5964 5965 5965
5847 5851 5853 5855 5858 5860 5864 5868 5872 5874 5877 5879 5881 5884 5886 5887 5889 5892 5895 5898 5899 5901 5902 5903 5904 5906 5907 5908 5909 5910 5911 5911 5912 5914 5916 5917 5919 5920 5922 5923 5925 5925 5926 5927 5928 5929 5931 5932 5935 5937 5938 5940 5941 5942 5943 5944 5946 5947 5949 5950 5951 5952 5952 5952 5953 5953 5954 5955 5956 5957 5958 5958 5959 5960 5960 5961 5962 5962 5963 5963 5964 5964 5965 5965 5965 5966
5845 5847 5849 5853 5856 5858 5862 5867 5870 5872 5874 5877 5879 5881 5883 5885 5888 5890 5893 5896 5897 5898 5899 5901 5903 5904 5906 5907 5908 5909 5910 5910 5911 5913 5915 5916 5918 5919 5921 5923 5924 5925 5926 5927 5928 5929 5930 5932 5934 5936 5937 5939 5940 5941 5943 5944 5946 5947 5948 5949 5951 5952 5952 5953 5953 5954 5955 5956 5957 5957 5958 5959 5960 5960 5961 5961 5962 5962 5963 5964 5965 5965 5965 5966 5966 5966
5842 5844 5847 5850 5853 5856 5860 5865 5868 5871 5872 5874 5876 5878 5880 5883 5886 5888 5891 5894 5895 5896 5897 5900 5902 5903 5904 5906 5906 5907 5908 5909 5910 5911 5913 5915 5916 5918 5920 5922 5923 5924 5925 5926 5927 5929 5930 5932 5933 5934 5936 5937 5939 5940 5942 5944 5945 5946 5947 5949 5950 5952 5952 5953 5954 5954 5955 5956 5957 5957 5958 5959 5960 5960 5961 5961 5962 5963 5963 5964 5965 5965 5966 5966 5966 5967
5839 5842 5845 5849 5851 5854 5859 5864 5867 5868 5870 5871 5873 5875 5878 5881 5884 5886 5889 5892 5893 5894 5896 5899 5900 5902 5903 5904 5905 5905 5906 5908 5909 5909 5911 5913 5915 5917 5919 5921 5922 5923 5924 5925 5926 5927 5929 5931 5932 5933 5935 5936 5938 5940 5941 5943 5945 5946 5947 5948 5950 5951 5952 5953 5954 5955 5955 5956 5957 5957 5958 5959 5960 5960 5961 5962 5962 5963 5964 5965 5965 5966 5966 5967 5967 5967
5835 5839 5843 5846 5849 5853 5857 5861 5864 5866 5867 5869 5871 5873 5875 5879 5881 5884 5887 5889 5891 5893 5895 5897 5898 5900 5902 5902 5903 5904 5904 5905 5906 5907 5908 5910 5912 5915 5917 5919 5920 5921 5923 5924 5925 5925 5926 5929 5931 5932 5934 5936 5937 5939 5941 5943 5945 5946 5947 5948 5949 5949 5951 5952 5953 5954 5955 5956 5956 5957 5958 5959 5960 5960 5961 5962 5963 5964 5965 5965 5965 5966 5967 5967 5968 5968
5832 5836 5840 5843 5846 5850 5854 5858 5861 5863 5864 5866 5869 5871 5873 5876 5878 5881 5884 5886 5888 5891 5893 5895 5896 5898 5901 5901 5902 5902 5903 5903 5904 5905 5906 5907 5909 5911 5914 5916 5918 5920 5922 5923 5924 5924 5925 5927 5930 5932 5934 5936 5937 5938 5940 5942 5944 5945 5946 5947 5948 5948 5949 5950 5952 5953 5954 5955 5956 5957 5958 5958 5959 5960 5961 5962 5963 5964 5965 5965 5966 5966 5967 5967 5968 5968
5829 5833 5837 5840 5843 5847 5851 5855 5858 5860 5862 5863 5866 5868 5871 5873 5876 5879 5881 5883 5886 5890 5891 5892 5893 5896 5899 5900 5900 5901 5901 5902 5903 5904 5905 5905 5906 5909 5912 5914 5916 5918 5920 5921 5922 5923 5925 5927 5930 5932 5933 5935 5937 5938 5940 5941 5943 5944 5945 5946 5947 5948 5948 5949 5950 5952 5953 5954 5955 5956 5957 5958 5959 5960 5960 5961 5962 5963 5964 5965 5965 5966 5966 5967 5967 5968
5826 5830 5834 5837 5840 5843 5848 5852 5855 5857 5859 5861 5863 5867 5869 5870 5873 5876 5878 5880 5884 5888 5889 5890 5892 5894 5897 5897 5898 5899 5900 5901 5902 5903 5905 5905 5906 5908 5910 5912 5914 5916 5918 5920 5921 5923 5925 5927 5929 5931 5933 5935 5936 5937 5938 5940 5942 5943 5944 5945 5946 5946 5947 5948 5949 5950 5951 5953 5954 5955 5956 5957 5958 5959 5960 5960 5961 5962 5963 5964 5965 5965 5965 5966 5966 5967
5823 5827 5831 5834 5836 5840 5844 5848 5852 5855 5857 5858 5862 5865 5867 5868 5871 5874 5877 5880 5883 5886 5888 5889 5891 5894 5896 5896 5898 5899 5899 5900 5902 5903 5904 5905 5906 5907 5909 5910 5912 5915 5917 5919 5921 5922 5924 5925 5927 5929 5932 5933 5935 5936 5937 5939 5941 5942 5943 5943 5944 5945 5946 5947 5948 5949 5950 5951 5953 5954 5956 5957 5958 5959 5959 5960 5960 5961 5962 5963 5964 5964 5965 5965 5965 5966
5820 5824 5828 5831 5834 5838 5842 5846 5850 5853 5855 5857 5861 5864 5866 5868 5872 5875 5877 5880 5883 5886 5887 5888 5890 5893 5895 5896 5897 5898 5898 5900 5901 5903 5904 5904 5905 5905 5905 5906 5909 5912 5915 5917 5920 5921 5922 5924 5925 5927 5929 5931 5933 5935 5936 5938 5940 5941 5941 5942 5943 5944 5945 5946 5947 5948 5949 5950 5951 5953 5955 5956 5958 5958 5958 5959 5959 5960 5961 5962 5963 5964 5964 5964 5965 5965
5818 5821 5825 5829 5832 5836 5840 5844 5847 5850 5852 5855 5858 5861 5863 5866 5871 5874 5876 5879 5882 5884 5885 5886 5888 5892 5894 5895 5896 5897 5898 5899 5901 5902 5903 5903 5903 5902 5902 5904 5907 5910 5913 5915 5918 5920 5921 5922 5924 5926 5928 5930 5932 5934 5935 5937 5938 5939 5940 5941 5942 5943 5944 5945 5946 5947 5948 5949 5950 5952 5954 5955 5957 5957 5957 5958 5958 5959 5960 5961 5962 5963 5963 5964 5964 5965
5815 5819 5823 5827 5830 5834 5838 5841 5844 5847 5849 5852 5855 5858 5861 5865 5868 5871 5873 5876 5879 5880 5881 5883 5886 5890 5892 5893 5895 5896 5897 5898 5900 5901 5901 5901 5901 5900 5901 5904 5906 5909 5912 5914 5916 5918 5920 5922 5923 5925 5927 5929 5931 5933 5934 5935 5936 5937 5938 5939 5941 5942 5943 5944 5945 5946 5947 5948 5949 5951 5953 5954 5956 5956 5956 5957 5958 5959 5960 5961 5962 5962 5963 5963 5964 5964
5813 5817 5821 5824 5828 5831 5835 5838 5841 5843 5847 5850 5853 5857 5861 5863 5865 5868 5871 5874 5875 5877 5878 5882 5885 5888 5890 5892 5893 5895 5896 5898 5899 5900 5900 5900 5899 5900 5902 5904 5905 5908 5910 5912 5914 5916 5918 5920 5921 5923 5925 5928 5930 5931 5932 5933 5934 5936 5937 5939 5940 5941 5942 5943 5944 5945 5946 5947 5948 5950 5952 5953 5954 5955 5956 5956 5957 5958 5959 5960 5961 5961 5962 5963 5963 5963
5811 5815 5818 5821 5825 5829 5832 5834 5836 5840 5844 5848 5851 5855 5858 5860 5862 5866 5869 5870 5872 5874 5877 5881 5884 5887 5889 5891 5893 5894 5895 5897 5897 5898 5899 5898 5898 5899 5901 5903 5904 5905 5907 5909 5912 5914 5917 5918 5920 5921 5923 5926 5928 5929 5930 5932 5933 5935 5937 5938 5939 5940 5941 5942 5944 5945 5946 5947 5948 5949 5950 5952 5953 5954 5955 5956 5956 5957 5957 5958 5959 5960 5961 5962 5962 5963
5809 5812 5815 5818 5823 5826 5828 5831 5834 5837 5841 5844 5847 5851 5855 5858 5861 5864 5867 5869 5871 5873 5877 5880 5882 5885 5889 5891 5892 5893 5894 5895 5896 5897 5897 5897 5897 5898 5900 5902 5903 5904 5906 5908 5911 5913 5916 5917 5919 5920 5922 5924 5926 5928 5929 5931 5932 5934 5935 5937 5938 5939 5940 5941 5942 5943 5944 5945 5946 5948 5949 5950 5951 5952 5954 5955 5956 5956 5957 5957 5958 5959 5960 5961 5962 5962
5806 5810 5813 5816 5820 5823 5825 5829 5833 5836 5839 5842 5845 5848 5852 5855 5858 5861 5864 5866 5869 5872 5875 5878 5881 5884 5888 5889 5890 5892 5893 5894 5895 5896 5896 5896 5896 5897 5899 5899 5900 5901 5904 5907 5909 5912 5914 5916 5917 5918 5920 5922 5925 5927 5928 5930 5931 5932 5934 5936 5937 5938 5939 5940 5940 5941 5942 5943 5944 5945 5947 5948 5949 5951 5953 5954 5955 5955 5956 5956 5957 5958 5958 5959 5960 5961
5804 5808 5810 5813 5817 5821 5823 5828 5832 5834 5837 5841 5844 5847 5851 5853 5856 5859 5860 5862 5866 5870 5873 5876 5879 5883 5886 5887 5888 5890 5892 5893 5894 5895 5895 5895 5895 5896 5897 5898 5899 5900 5902 5904 5906 5908 5911 5914 5915 5916 5918 5921 5923 5925 5927 5928 5929 5931 5932 5934 5936 5937 5938 5938 5939 5939 5940 5941 5942 5943 5944 5946 5947 5949 5951 5952 5953 5954 5955 5955 5956 5957 5957 5958 5958 5959
5802 5806 5808 5812 5816 5819 5822 5826 5829 5832 5835 5839 5843 5846 5849 5852 5855 5857 5858 5861 5865 5868 5871 5874 5877 5881 5883 5885 5886 5888 5890 5891 5892 5893 5894 5895 5894 5895 5896 5898 5899 5901 5902 5902 5904 5906 5908 5910 5912 5914 5917 5919 5921 5923 5925 5926 5927 5929 5930 5932 5934 5936 5937 5937 5938 5938 5939 5940 5941 5941 5942 5943 5944 5946 5948 5950 5951 5952 5953 5954 5955 5956 5956 5957 5958 5958
5801 5804 5807 5810 5814 5817 5821 5824 5827 5830 5833 5836 5839 5842 5845 5849 5852 5855 5857 5860 5863 5866 5869 5872 5875 5879 5882 5883 5884 5886 5888 5889 5891 5892 5893 5894 5894 5895 5895 5897 5898 5900 5901 5902 5903 5905 5906 5908 5910 5913 5915 5917 5919 5920 5922 5924 5926 5927 5929 5930 5932 5933 5934 5935 5936 5937 5938 5939 5941 5942 5942 5942 5942 5943 5944 5946 5947 5949 5950 5951 5953 5954 5954 5955 5956 5957
5800 5803 5805 5809 5812 5815 5818 5820 5823 5826 5829 5833 5836 5839 5843 5846 5850 5853 5855 5858 5860 5863 5867 5869 5872 5877 5880 5881 5882 5884 5886 5888 5890 5891 5892 5893 5894 5894 5895 5896 5898 5899 5901 5902 5902 5903 5905 5907 5908 5910 5912 5914 5916 5918 5920 5922 5924 5925 5927 5928 5930 5931 5931 5932 5934 5936 5937 5937 5938 5940 5941 5942 5942 5942 5942 5943 5944 5946 5947 5948 5950 5951 5952 5953 5954 5956
5799 5802 5804 5807 5810 5812 5814 5817 5820 5823 5826 5830 5834 5837 5841 5844 5847 5849 5852 5855 5857 5861 5864 5866 5870 5874 5877 5879 5881 5882 5884 5886 5888 5890 5891 5892 5893 5894 5895 5896 5897 5898 5900 5901 5902 5903 5904 5905 5906 5907 5908 5910 5912 5915 5917 5919 5921 5922 5924 5926 5928 5929 5929 5930 5932 5933 5935 5935 5935 5936 5938 5939 5940 5940 5940 5941 5942 5943 5944 5946 5947 5948 5950 5951 5953 5954
5798 5801 5803 5805 5808 5811 5814 5816 5819 5822 5825 5828 5831 5835 5838 5842 5844 5847 5850 5852 5854 5858 5861 5864 5868 5871 5874 5877 5879 5880 5882 5884 5886 5888 5889 5890 5891 5893 5894 5895 5897 5898 5899 5900 5901 5902 5903 5903 5903 5904 5905 5906 5909 5912 5914 5916 5917 5919 5921 5923 5925 5926 5926 5927 5929 5931 5932 5933 5933 5934 5935 5936 5937 5938 5939 5940 5940 5941 5942 5943 5945 5946 5947 5948 5950 5952
5797 5800 5802 5804 5807 5809 5813 5816 5818 5821 5824 5827 5830 5833 5836 5839 5842 5844 5847 5850 5852 5856 5859 5861 5865 5868 5871 5874 5877 5879 5880 5882 5884 5885 5886 5888 5889 5891 5892 5894 5895 5896 5897 5898 5899 5900 5900 5900 5902 5903 5904 5905 5907 5909 5911 5913 5914 5916 5918 5920 5921 5922 5923 5925 5927 5928 5929 5930 5931 5932 5933 5934 5935 5935 5936 5937 5938 5939 5940 5942 5943 5944 5945 5946 5947 5949
5795 5798 5800 5803 5806 5808 5811 5814 5817 5820 5823 5826 5829 5831 5834 5837 5840 5842 5845 5848 5850 5853 5856 5859 5862 5865 5868 5870 5873 5876 5878 5880 5881 5882 5884 5886 5887 5888 5890 5892 5893 5894 5895 5896 5897 5897 5896 5898 5901 5902 5903 5905 5907 5908 5909 5911 5912 5914 5914 5916 5918 5919 5920 5922 5925 5926 5927 5928 5929 5929 5930 5932 5932 5932 5932 5933 5934 5936 5938 5939 5940 5942 5943 5944 5945 5946
5794 5796 5798 5801 5804 5807 5810 5813 5816 5819 5822 5824 5827 5829 5832 5835 5837 5840 5842 5845 5848 5850 5854 5857 5859 5862 5864 5867 5870 5873 5875 5877 5879 5880 5882 5884 5885 5886 5888 5889 5891 5892 5893 5894 5895 5895 5895 5897 5900 5902 5902 5904 5906 5907 5907 5908 5909 5910 5911 5912 5915 5917 5918 5920 5923 5924 5925 5926 5927 5927 5928 5929 5929 5929 5929 5930 5930 5932 5935 5936 5937 5939 5940 5941 5943 5944
5792 5795 5797 5799 5802 5805 5809 5812 5814 5817 5820 5823 5825 5827 5830 5832 5835 5837 5840 5843 5845 5848 5851 5854 5857 5859 5861 5864 5866 5869 5872 5874 5876 5878 5880 5881 5882 5883 5885 5887 5888 5889 5891 5892 5893 5894 5894 5895 5899 5901 5902 5903 5904 5905 5906 5907 5907 5908 5909 5912 5914 5915 5917 5918 5920 5921 5922 5923 5924 5924 5925 5926 5926 5926 5927 5927 5927 5929 5932 5933 5934 5936 5937 5939 5940 5941
5791 5793 5796 5798 5800 5803 5806 5810 5813 5816 5819 5821 5824 5826 5828 5830 5832 5835 5838 5840 5843 5846 5848 5851 5854 5856 5858 5861 5863 5866 5868 5870 5872 5874 5876 5877 5879 5880 5882 5883 5885 5887 5888 5889 5890 5892 5892 5893 5895 5898 5900 5902 5903 5904 5904 5905 5906 5906 5908 5911 5912 5913 5914 5915 5917 5918 5919 5920 5920 5921 5922 5923 5924 5924 5924 5924 5924 5925 5927 5929 5931 5932 5934 5935 5937 5938
5789 5792 5794 5797 5799 5801 5804 5807 5811 5814 5817 5819 5821 5823 5826 5828 5830 5833 5835 5837 5840 5843 5845 5848 5850 5853 5856 5858 5860 5862 5865 5867 5869 5871 5872 5874 5875 5877 5879 5880 5882 5883 5885 5886 5887 5889 5890 5891 5892 5894 5897 5899 5900 5902 5903 5904 5904 5905 5906 5908 5909 5910 5911 5913 5914 5915 5917 5918 5918 5918 5919 5920 5921 5921 5922 5922 5921 5921 5923 5924 5926 5928 5930 5932 5933 5935
5787 5790 5792 5795 5797 5800 5802 5805 5808 5811 5814 5816 5818 5821 5824 5826 5828 5830 5833 5835 5837 5839 5842 5844 5847 5850 5852 5855 5857 5859 5862 5864 5866 5868 5869 5871 5872 5874 5876 5877 5879 5880 5882 5883 5884 5885 5886 5888 5889 5890 5892 5895 5897 5899 5900 5902 5902 5903 5904 5905 5906 5907 5909 5910 5911 5913 5915 5916 5916 5917 5917 5917 5919 5919 5919 5919 5919 5918 5919 5920 5922 5924 5926 5928 5930 5932
5786 5788 5790 5792 5795 5798 5801 5803 5805 5807 5810 5813 5816 5819 5822 5824 5826 5828 5830 5832 5834 5836 5839 5841 5843 5846 5848 5851 5853 5855 5858 5861 5864 5865 5867 5868 5870 5872 5873 5874 5876 5877 5879 5880 5881 5882 5883 5885 5887 5888 5889 5891 5893 5895 5897 5899 5900 5901 5902 5903 5903 5904 5906 5907 5908 5909 5911 5912 5913 5914 5915 5916 5917 5917 5917 5917 5917 5916 5916 5916 5918 5920 5922 5925 5927 5929
5784 5786 5788 5790 5793 5796 5798 5801 5802 5805 5808 5810 5813 5816 5819 5821 5823 5825 5828 5830 5831 5834 5836 5838 5840 5842 5844 5847 5849 5852 5854 5857 5860 5863 5864 5866 5867 5869 5870 5871 5872 5874 5876 5877 5878 5879 5880 5882 5884 5885 5886 5888 5889 5891 5893 5895 5896 5897 5899 5900 5900 5901 5903 5904 5904 5906 5907 5908 5910 5911 5913 5914 5915 5915 5916 5916 5915 5914 5914 5914 5915 5917 5919 5921 5924 5926
5784 5785 5787 5789 5791 5794 5796 5798 5800 5803 5806 5808 5811 5813 5816 5818 5820 5822 5824 5826 5828 5831 5833 5835 5837 5838 5840 5843 5845 5848 5851 5853 5856 5859 5861 5863 5864 5865 5866 5868 5869 5871 5872 5874 5875 5876 5878 5879 5881 5882 5883 5885 5886 5887 5889 5890 5892 5894 5895 5896 5897 5898 5899 5901 5902 5902 5904 5905 5907 5908 5910 5911 5912 5913 5913 5913 5913 5912 5912 5912 5913 5915 5917 5918 5921 5923
5783 5784 5786 5787 5789 5792 5794 5796 5798 5801 5803 5806 5808 5810 5813 5815 5817 5819 5821 5823 5825 5827 5829 5831 5833 5835 5837 5839 5841 5844 5847 5849 5852 5855 5857 5859 5860 5861 5863 5864 5865 5866 5868 5870 5872 5873 5874 5876 5877 5878 5880 5881 5883 5884 5885 5886 5888 5890 5891 5893 5894 5895 5896 5898 5899 5900 5901 5902 5903 5905 5907 5909 5910 5910 5910 5910 5910 5910 5910 5911 5912 5913 5915 5916 5918 5920
5782 5784 5785 5787 5788 5790 5792 5794 5796 5798 5801 5803 5806 5808 5811 5812 5814 5816 5818 5819 5821 5824 5826 5828 5829 5831 5833 5835 5838 5840 5843 5845 5847 5850 5852 5854 5855 5856 5857 5858 5859 5861 5863 5865 5867 5869 5870 5872 5873 5874 5876 5878 5879 5880 5882 5883 5884 5886 5887 5889 5890 5891 5892 5895 5896 5897 5897 5898 5900 5901 5903 5904 5906 5907 5907 5908 5908 5907 5908 5909 5911 5912 5914 5915 5916 5918
5782 5783 5785 5786 5787 5788 5790 5792 5794 5796 5798 5800 5803 5806 5808 5809 5811 5813 5814 5815 5818 5820 5822 5824 5826 5827 5830 5832 5834 5836 5839 5840 5842 5844 5846 5848 5849 5850 5851 5852 5852 5853 5856 5859 5861 5863 5865 5867 5869 5870 5872 5873 5875 5876 5878 5880 5881 5882 5884 5885 5886 5887 5888 5891 5893 5893 5893 5894 5896 5897 5899 5900 5901 5903 5904 5905 5905 5905 5906 5908 5909 5910 5912 5913 5914 5915
5781 5783 5784 5785 5786 5787 5788 5790 5791 5794 5796 5798 5799 5802 5804 5806 5807 5808 5809 5812 5814 5816 5818 5820 5822 5824 5826 5828 5830 5832 5834 5835 5837 5838 5840 5842 5842 5843 5843 5844 5845 5847 5850 5853 5856 5858 5860 5862 5864 5866 5867 5869 5870 5872 5873 5875 5877 5878 5880 5881 5881 5883 5884 5886 5888 5889 5889 5891 5892 5894 5896 5898 5898 5899 5900 5901 5902 5903 5904 5906 5907 5908 5909 5910 5911 5912
5781 5782 5783 5784 5786 5787 5787 5788 5790 5791 5793 5795 5797 5798 5800 5802 5803 5804 5806 5809 5810 5812 5813 5816 5818 5820 5821 5823 5825 5828 5829 5830 5831 5833 5835 5837 5838 5838 5837 5838 5840 5842 5845 5848 5850 5853 5855 5857 5859 5860 5862 5864 5866 5867 5869 5870 5872 5874 5875 5876 5877 5878 5880 5881 5883 5884 5886 5887 5888 5890 5892 5894 5895 5896 5896 5898 5899 5900 5901 5903 5904 5905 5906 5907 5908 5909
5780 5781 5782 5783 5785 5786 5787 5788 5789 5790 5791 5793 5794 5795 5796 5797 5799 5801 5803 5805 5807 5808 5809 5811 5813 5815 5817 5818 5820 5822 5824 5825 5826 5827 5830 5832 5833 5833 5833 5834 5836 5838 5840 5843 5845 5847 5849 5852 5853 5855 5857 5859 5861 5863 5864 5866 5867 5869 5870 5872 5873 5874 5875 5877 5878 5880 5881 5883 5884 5886 5887 5889 5891 5892 5893 5893 5895 5897 5898 5899 5900 5901 5902 5903 5904 5905
5779 5780 5781 5782 5783 5785 5786 5787 5788 5789 5790 5791 5792 5793 5793 5795 5796 5798 5799 5801 5802 5804 5806 5807 5809 5810 5812 5814 5815 5817 5819 5820 5821 5822 5824 5826 5827 5827 5828 5831 5832 5834 5836 5838 5840 5842 5844 5846 5848 5850 5852 5854 5856 5858 5859 5861 5862 5864 5865 5867 5868 5870 5871 5872 5874 5875 5877 5878 5880 5881 5882 5884 5886 5888 5889 5890 5891 5893 5894 5895 5896 5897 5898 5899 5900 5901
5779 5780 5780 5781 5782 5783 5784 5785 5786 5787 5788 5789 5790 5791 5791 5792 5793 5794 5796 5797 5798 5799 5801 5803 5804 5806 5807 5809 5811 5812 5813 5815 5816 5817 5819 5820 5820 5821 5823 5826 5828 5830 5831 5833 5835 5837 5839 5841 5843 5845 5847 5849 5851 5852 5854 5856 5858 5859 5861 5862 5864 5865 5866 5868 5869 5871 5872 5873 5875 5876 5878 5879 5881 5882 5884 5885 5887 5888 5889 5891 5892 5893 5894 5895 5895 5896
5778 5779 5779 5780 5781 5782 5783 5784 5784 5785 5786 5786 5787 5788 5789 5789 5790 5791 5792 5793 5794 5795 5796 5798 5799 5801 5802 5804 5806 5807 5808 5809 5810 5811 5813 5815 5815 5815 5817 5820 5822 5824 5826 5828 5830 5832 5834 5836 5837 5839 5841 5843 5845 5847 5848 5851 5852 5854 5856 5857 5859 5860 5862 5863 5865 5866 5867 5869 5870 5871 5873 5874 5876 5877 5878 5880 5881 5883 5884 5886 5887 5888 5889 5890 5891 5892
5777 5777 5778 5779 5779 5780 5781 5782 5782 5783 5783 5784 5784 5785 5785 5786 5787 5787 5788 5789 5790 5791 5792 5793 5794 5795 5797 5799 5801 5802 5803 5804 5805 5806 5807 5809 5810 5810 5811 5814 5816 5818 5820 5822 5824 5826 5827 5829 5831 5832 5834 5836 5838 5840 5842 5845 5847 5848 5850 5852 5853 5855 5857 5859 5860 5861 5863 5864 5866 5867 5868 5869 5871 5872 5873 5874 5876 5877 5879 5880 5882 5883 5884 5885 5886 5887
5775 5776 5777 5777 5777 5778 5778 5779 5780 5780 5781 5781 5782 5782 5782 5782 5783 5783 5784 5784 5785 5786 5787 5788 5789 5790 5791 5792 5794 5796 5797 5799 5800 5801 5802 5803 5804 5804 5806 5808 5811 5813 5814 5816 5818 5819 5820 5822 5823 5825 5827 5829 5831 5833 5836 5838 5840 5842 5844 5846 5847 5849 5851 5852 5854 5856 5858 5859 5860 5862 5863 5864 5866 5867 5868 5869 5871 5872 5873 5875 5876 5877 5878 5879 5880 5881
5773 5774 5775 5775 5775 5776 5776 5777 5777 5778 5778 5778 5779 5779 5779 5779 5779 5779 5779 5780 5780 5781 5782 5783 5784 5785 5786 5786 5788 5789 5791 5793 5794 5795 5796 5797 5798 5799 5801 5803 5805 5807 5808 5810 5811 5813 5814 5815 5817 5819 5821 5822 5824 5826 5828 5830 5833 5835 5837 5839 5840 5842 5843 5845 5847 5849 5851 5853 5854 5856 5857 5858 5860 5861 5862 5864 5865 5866 5867 5869 5870 5871 5872 5873 5874 5875
5771 5772 5772 5773 5773 5773 5773 5774 5774 5774 5775 5775 5775 5775 5776 5776 5776 5775 5775 5776 5776 5776 5777 5778 5778 5779 5780 5781 5782 5783 5785 5786 5787 5788 5789 5791 5792 5794 5795 5797 5799 5801 5802 5803 5804 5805 5807 5808 5810 5812 5814 5816 5818 5819 5821 5823 5825 5827 5829 5831 5833 5835 5837 5838 5840 5842 5844 5846 5848 5849 5850 5852 5853 5854 5856 5857 5858 5860 5861 5862 5863 5865 5866 5867 5868 5869
5769 5769 5769 5770 5770 5770 5770 5771 5771 5771 5771 5771 5771 5771 5772 5772 5772 5772 5771 5771 5771 5771 5772 5772 5773 5773 5774 5775 5777 5778 5779 5780 5781 5782 5783 5784 5785 5787 5789 5790 5792 5793 5795 5797 5797 5798 5800 5801 5803 5804 5807 5809 5811 5812 5814 5816 5818 5819 5821 5823 5826 5828 5830 5831 5833 5835 5836 5838 5840 5842 5844 5845 5846 5848 5849 5850 5851 5853 5854 5855 5857 5858 5860 5861 5862 5863